Regional Weather Roundup
Issued by NWS Kansas City/Pleasant Hill, MO

Home | Current Version | Previous Version | Text Only | Print | Product List | Glossary On
Versions: 1 2 3 4 5 6 7 8 9 10 11 12 13 14 15 16 17 18 19 20 21 22 23 24 25 26 27 28 29 30 31 32 33 34 35 36 37 38 39 40 41 42 43 44 45 46 47 48 49 50
000
ASUS43 KEAX 012304
RWREAX

WEATHER ROUNDUP FOR EASTERN KANSAS AND NORTHWEST MISSOURI
NATIONAL WEATHER SERVICE KANSAS CITY/PLEASANT HILL MO
600 PM CDT FRI AUG 01 2014

KSZ040-057-103>105-MOZ028-029-037-043-020000-
...KANSAS CITY METROPOLITAN AREA...

CITY           SKY/WX    TMP DP  RH WIND       PRES   REMARKS
K.C. INTL      MOSUNNY   83  62  49 E9        30.05S
K.C. DOWNTOWN  PTSUNNY   85  61  44 E8        30.03S
LEES SUMMIT    MOSUNNY   82  60  47 E6        30.06S
OLATHE - IXD   MOSUNNY   85  60  42 VRB7      30.05S
OLATHE - OJC   PTSUNNY   83  62  49 E7        30.04F
LAWRENCE       SUNNY     87  62  43 E9        30.03S

$$

MOZ001>008-011>017-020>025-030>033-038>040-044>046-053-054-020000-
...NORTHERN AND CENTRAL MISSOURI...

CITY           SKY/WX    TMP DP  RH WIND       PRES   REMARKS
ST. JOSEPH     SUNNY     81  62  52 S3        30.05S
MOSBY          PTCLDY    81  59  47 E3        30.05S
WHITEMAN AFB   NOT AVBL
CLINTON        MOSUNNY   82  63  51 N6        30.04F
SEDALIA        SUNNY     83  60  45 CALM      30.06F
WARSAW         NOT AVBL
MARSHALL       PTSUNNY   84  61  45 CALM      30.07F HAZE
CHILLICOTHE      N/A     84  59  42 CALM      30.07S
KIRKSVILLE     MOSUNNY   82  60  47 N6        30.07S

$$

MOZ041-047>049-056>058-063>065-088>090-097-020000-
...EASTERN AND SOUTHERN MISSOURI...

CITY           SKY/WX    TMP DP  RH WIND       PRES   REMARKS
ST. LOUIS INTL CLOUDY    77  65  66 CALM      30.08R
SPIRIT OF STL  LGT RAIN  71  68  90 CALM      30.06S
COLUMBIA       PTSUNNY   84  59  42 NE5       30.07R
JEFFERSON CITY MOSUNNY   83  59  44 VRB3      30.05S
HANNIBAL       PTSUNNY   79  61  53 S9        30.08R
ROLLA          PTSUNNY   80  60  50 NE9       30.06R
LEBANON        SUNNY     84  50  30 CALM      30.06S
OSAGE BEACH      N/A     82  61  47 NE5       30.05S
SPRINGFIELD    PTSUNNY   82  57  42 S3        30.05S
NEVADA         MOSUNNY   84  63  48 SW5       30.05S
JOPLIN         SUNNY     83  58  42 S7        30.05F
WEST PLAINS    SUNNY     79  62  56 S5        30.07S
MALDEN         SUNNY     86  63  45 SE3       30.03F

$$

IAZ060-094-KSZ022-034>040-054-083-096-NEZ052-066-093-020000-
...KANSAS...SOUTHEAST NEBRASKA AND IOWA...

CITY           SKY/WX    TMP DP  RH WIND       PRES   REMARKS
TOPEKA         SUNNY     86  60  41 E10       30.01S
MANHATTAN      SUNNY     89  57  33 NE6       29.99F
EMPORIA        MOSUNNY   84  64  50 SE15G23   30.01S
CHANUTE        MOSUNNY   81  64  56 S9        30.04F
WICHITA        MOSUNNY   91  55  29 N8        30.01F
OMAHA          MOSUNNY   82  59  45 E7        30.07F
LINCOLN        SUNNY     83  58  42 E10G17    30.07F
FALLS CITY     SUNNY     84  61  45 E9        30.05S
LAMONI         LGT RAIN  76  66  71 NW5       30.08R
DES MOINES     MOSUNNY   84  58  40 E5        30.06S

$$



USA.gov is the U.S. government's official web portal to all federal, state and local government web resources and services.